Temp
15 15 15 15 16 16 16 16 15 15 15 15 15 15 15 16 16 16 16 17 17 17 17 17 17 18 18 17 18 17 16 15 18 20 19 15 16 12 11 10 9 7 8 8 6
15 15 15 15 16 16 17 16 16 16 16 15 15 15 15 15 15 14 16 16 16 16 17 16 17 16 16 17 17 16 13 16 18 17 17 15 16 12 12 11 9 6 5 6 5
14 14 15 15 15 16 17 16 16 16 16 15 16 15 15 15 14 16 15 16 16 16 16 15 16 16 17 18 17 16 15 17 17 16 16 15 14 11 11 10 9 7 4 5 5
13 14 14 15 15 16 16 16 16 15 15 15 15 15 15 15 17 16 16 16 16 15 15 16 16 16 16 17 17 17 17 17 16 15 16 15 13 12 11 14 11 7 5 5 5
13 13 14 15 15 15 16 16 16 15 15 15 14 14 15 14 14 15 16 16 16 16 16 16 16 16 17 17 17 16 17 16 14 14 14 14 12 13 11 11 8 6 5 5 4
12 13 14 15 15 16 16 16 16 16 16 14 14 14 14 13 15 15 16 16 16 15 16 16 15 16 16 16 16 16 16 15 13 13 13 13 13 13 12 6 6 6 5 4 4
12 13 14 15 15 16 17 17 17 16 16 15 14 13 13 13 15 15 15 15 15 15 15 15 15 15 16 17 16 15 15 13 12 12 13 13 12 11 9 7 6 6 5 4 4
13 13 14 14 15 15 16 17 17 16 16 15 14 13 12 14 14 14 15 15 15 15 15 15 15 15 16 15 15 15 14 13 14 11 12 13 12 13 6 7 6 5 5 5 4
12 13 13 14 15 15 16 17 17 16 16 14 13 13 13 14 14 14 14 14 14 14 15 15 15 14 15 13 13 12 13 11 13 11 10 10 12 10 6 8 6 5 5 5 4
12 12 13 14 14 14 15 17 16 15 15 14 14 13 13 14 13 13 13 13 13 14 14 14 12 12 11 11 12 13 11 12 13 12 10 9 9 10 7 7 7 6 6 5 4
11 11 11 13 14 14 15 15 12 13 13 15 15 14 14 13 13 12 13 13 13 13 12 13 11 10 12 11 13 14 14 13 14 12 10 10 11 12 9 7 7 7 6 5 5
8 10 11 12 14 13 14 11 12 11 9 11 11 11 13 13 13 12 12 12 12 12 12 11 10 12 13 12 12 12 12 12 12 11 9 9 10 11 10 8 8 9 7 6 5
9 9 11 11 13 13 12 11 10 10 7 10 12 13 12 12 12 12 11 12 12 13 11 11 14 12 13 12 12 11 11 11 12 10 9 8 9 9 10 11 11 10 10 7 5
7 8 9 9 13 11 11 11 10 9 9 13 12 12 11 11 12 10 10 12 12 12 11 11 11 11 11 11 11 10 10 10 10 10 10 9 12 13 13 12 9 11 9 6 4
7 7 7 9 7 9 11 11 10 9 11 15 12 11 11 11 11 11 9 10 12 12 11 12 9 9 10 10 10 11 9 9 9 8 6 8 8 11 11 12 8 2 4 4 3
7 8 8 9 8 11 11 11 10 11 11 14 12 13 12 11 12 9 10 10 10 10 10 9 8 9 9 7 8 7 8 8 6 6 4 8 9 7 7 6 4 -1 -0 1 1
7 9 9 7 8 10 10 10 9 10 15 15 14 13 13 13 13 10 10 10 11 12 10 10 8 7 7 8 6 8 8 9 8 4 10 7 6 6 6 -0 -2 -3 -2 -2 -0
6 9 10 9 9 10 10 10 11 13 13 14 14 13 13 13 13 11 11 10 9 10 9 10 12 6 6 8 8 6 8 10 11 9 8 4 5 8 -2 -5 -5 -3 -4 -1 -3
6 7 8 10 10 10 9 9 10 11 13 12 12 12 13 12 12 12 10 10 7 9 11 11 10 6 6 6 7 8 7 8 7 5 7 7 8 6 -0 -0 -2 -1 -0 -2 -2
5 5 7 9 10 10 8 10 10 12 11 11 11 12 11 10 11 11 12 8 7 6 6 7 7 5 5 7 5 6 6 7 6 8 8 5 5 7 6 4 -1 -1 -1 -2 -2
5 4 9 9 9 6 8 7 10 10 11 10 10 10 10 9 10 9 10 7 6 6 7 5 6 6 6 5 6 5 6 4 4 5 7 7 5 2 5 2 2 0 -1 -2 -2
4 3 9 8 6 3 6 9 10 9 8 8 7 7 8 8 8 8 9 8 5 6 5 5 5 6 6 3 3 3 3 4 6 6 6 6 7 -2 -2 -2 -0 -2 -1 -3 -2
2 4 8 8 5 5 5 7 7 6 7 7 7 6 5 6 6 8 7 7 4 5 5 4 4 5 6 3 3 3 3 4 4 4 5 6 7 -4 -4 -0 1 0 -2 -2 -2
3 3 4 4 5 5 5 6 6 7 6 6 6 5 5 6 6 6 6 7 5 5 7 5 3 6 7 7 8 5 5 4 4 4 5 6 7 8 3 3 1 -0 -1 -3 -2
1 3 4 3 4 3 3 5 5 5 6 5 5 5 5 6 4 5 5 5 4 5 5 4 4 4 5 5 6 6 6 5 4 5 5 7 6 7 7 3 2 1 -2 -2 -2
2 2 2 2 2 3 4 4 5 5 4 4 4 5 4 4 5 4 4 4 5 2 3 2 3 3 3 4 4 4 4 4 4 4 4 5 4 6 4 3 2 -0 -2 -1 -1
2 3 2 2 2 2 2 4 3 4 4 5 5 4 2 4 4 5 4 4 4 5 3 2 2 2 3 4 4 3 2 4 2 3 3 2 3 2 2 2 -1 -0 -1 -1 -1
Height
826 822 818 814 809 805 801 800 798 796 794 792 789 788 786 783 780 778 776 774 773 773 772 772 771 772 774 774 772 774 792 797 779 772 768 772 775 785 786 789 794 796 796 795 802
826 822 818 814 809 805 802 799 797 795 793 790 788 786 784 781 778 774 773 772 772 771 770 769 771 772 776 774 774 781 796 783 770 770 770 771 770 780 783 789 793 797 796 797 803
828 824 820 815 810 806 802 799 796 792 789 787 785 784 782 780 778 768 770 770 770 770 770 770 769 770 775 772 773 778 783 770 768 769 768 771 776 779 782 789 779 785 795 797 801
829 824 819 814 810 805 801 797 793 789 786 783 781 781 779 778 783 767 768 768 768 769 770 769 770 770 772 772 765 774 768 766 768 768 769 771 772 774 775 761 763 772 781 789 794
828 823 818 813 808 804 799 794 789 785 781 779 779 778 777 778 771 766 766 766 766 767 767 767 768 769 771 768 767 768 764 766 769 771 771 771 773 772 767 766 769 777 784 787 791
828 822 817 812 806 801 796 791 786 782 778 776 775 776 777 780 764 765 765 765 765 766 766 766 767 766 767 766 767 765 766 766 769 770 769 770 770 770 758 767 774 777 781 785 788
828 822 816 810 805 799 793 788 783 778 775 773 773 775 774 770 763 764 764 765 765 765 765 766 766 766 766 766 764 765 768 767 766 766 767 768 772 761 760 765 772 776 779 782 784
827 821 815 810 804 797 790 785 779 775 773 771 771 773 770 763 763 764 764 763 763 764 765 765 765 766 765 766 767 770 771 774 760 767 767 768 761 747 761 763 770 773 776 778 781
826 821 814 808 802 794 788 782 775 773 772 771 772 772 769 762 762 762 762 762 762 763 765 765 765 767 768 773 778 777 776 778 762 763 767 770 757 757 763 762 766 769 770 773 778
825 820 814 807 801 793 787 779 773 773 771 771 771 774 766 762 761 762 762 762 762 763 765 766 771 775 779 779 781 774 781 770 762 761 767 771 760 752 762 763 759 763 764 765 768
825 819 813 805 799 792 785 778 780 775 770 766 759 758 760 761 761 762 762 763 764 764 769 768 778 780 766 770 762 761 764 765 755 755 765 761 748 742 753 760 757 755 755 757 759
824 817 810 803 797 792 789 788 792 792 779 760 758 760 757 759 761 760 763 765 765 768 768 776 779 759 757 761 765 765 767 763 757 760 767 760 749 744 743 743 734 732 739 743 754
822 816 809 802 794 792 791 792 791 791 794 761 756 754 757 759 758 760 761 760 762 766 772 774 755 758 758 761 763 763 765 761 756 764 764 767 743 740 723 720 720 718 719 735 743
821 814 809 802 796 794 791 791 791 791 792 759 758 758 759 758 759 761 760 760 762 762 764 766 759 759 762 762 764 767 761 762 762 764 767 762 732 717 711 708 710 709 718 728 741
818 813 809 805 799 796 792 790 790 792 797 754 758 760 759 762 763 761 763 762 756 757 762 753 764 765 765 760 760 758 766 766 768 775 788 769 776 723 721 709 712 731 727 732 739
816 809 805 801 799 792 790 789 789 794 795 754 759 758 759 761 760 766 765 765 765 762 761 762 764 762 759 771 768 771 769 774 785 787 804 759 756 746 741 734 733 745 740 738 744
814 805 801 798 795 792 791 789 800 798 752 753 754 756 755 753 755 763 764 767 763 755 760 759 761 766 766 767 773 770 768 765 772 801 746 763 776 748 730 750 758 757 750 748 749
810 802 796 794 793 793 793 794 790 768 762 754 755 753 754 750 751 757 759 763 760 758 763 754 739 766 766 761 761 777 763 746 734 755 759 779 771 726 755 762 760 752 752 750 754
805 796 793 793 793 792 796 805 791 776 767 768 761 757 753 755 757 757 762 762 774 763 758 754 748 766 769 770 766 766 771 760 762 775 767 748 732 729 750 752 752 749 746 750 753
803 798 793 793 792 793 800 790 784 773 773 772 772 764 767 767 765 759 752 768 774 777 774 775 776 777 773 768 776 774 781 768 776 755 745 765 761 738 733 741 756 755 750 751 751
810 805 798 796 795 800 801 800 785 779 777 780 778 772 771 771 765 765 755 769 775 777 773 780 779 773 772 772 764 775 772 789 787 775 756 758 759 752 738 749 748 751 752 751 752
817 819 800 800 806 812 809 794 788 784 783 785 785 785 778 776 776 770 764 762 773 773 776 775 779 772 764 780 778 780 781 780 766 765 767 765 739 756 758 758 753 754 752 756 756
824 816 802 799 808 812 806 802 798 797 794 794 787 789 791 787 785 768 770 764 771 773 773 778 780 775 761 783 782 778 780 772 768 767 758 754 737 765 764 753 748 750 752 750 750
827 823 811 807 811 813 810 801 799 795 792 791 790 793 791 786 783 776 775 764 767 767 764 770 779 762 751 748 743 761 762 762 767 767 751 742 723 719 742 742 746 747 745 748 748
829 826 820 821 817 821 819 809 804 802 793 794 790 792 794 783 785 779 774 776 775 767 767 771 771 766 756 751 749 749 749 749 755 749 751 731 733 721 721 737 740 738 744 746 747
832 830 824 824 821 820 815 810 804 800 805 800 797 791 796 791 786 780 781 780 769 776 774 774 766 765 764 754 753 755 749 745 746 744 745 741 738 723 731 733 735 739 741 743 743
829 826 826 820 821 821 820 810 807 805 797 795 793 793 796 786 783 778 775 772 768 763 770 772 772 768 758 749 753 759 749 739 747 742 740 751 737 740 737 735 742 739 741 741 743
Wind_Speed
28 28 28 29 27 21 16 14 12 11 10 10 11 12 13 15 19 9 6 7 5 11 9 9 3 2 3 2 4 3 1 4 5 5 3 4 4 3 1 6 3 4 2 4 36
27 28 29 30 31 23 17 15 14 13 13 12 12 13 13 15 18 9 7 6 8 8 4 2 1 5 1 3 2 4 4 7 2 1 3 6 4 9 5 4 4 2 5 25 33
27 28 29 30 31 28 19 19 18 16 15 14 14 13 13 14 5 3 5 4 5 5 5 3 3 4 3 2 4 4 5 4 4 3 2 5 3 5 9 6 9 10 15 21 27
29 30 30 31 31 31 23 25 25 22 18 15 13 12 12 1 6 4 2 4 4 4 4 4 2 4 5 7 6 4 7 4 4 3 3 4 6 5 9 5 7 13 22 21 19
30 31 31 31 31 31 30 29 28 27 19 15 12 9 3 1 7 4 4 4 3 4 7 4 4 3 4 2 3 5 2 2 3 4 4 2 6 7 9 3 7 16 18 19 17
32 33 33 33 33 34 34 29 31 26 16 12 8 5 2 3 4 2 3 3 1 2 3 5 5 3 4 4 5 1 2 4 6 5 4 5 3 3 4 8 11 17 18 16 17
32 32 33 33 33 34 34 28 33 23 14 8 6 4 2 10 3 3 4 2 2 1 1 1 1 1 1 3 1 1 5 5 7 6 5 4 6 16 6 11 14 14 14 15 16
34 35 35 35 35 37 35 29 33 15 8 3 5 4 6 3 4 3 4 2 2 2 2 3 1 3 2 1 2 2 1 3 1 7 3 5 8 2 11 15 12 13 13 14 15
34 35 35 35 36 38 30 31 22 8 4 1 4 3 7 2 2 2 1 1 4 2 2 1 1 2 1 3 3 2 5 7 6 9 5 7 6 2 7 10 12 13 14 14 14
33 35 35 34 37 32 29 24 10 5 3 3 2 2 1 3 2 2 2 1 1 2 1 1 3 1 2 4 6 6 5 5 6 6 5 6 17 10 8 10 14 14 14 16 17
33 33 35 35 34 23 27 8 7 4 3 7 6 3 3 2 2 1 1 1 1 1 4 1 2 8 13 7 1 1 4 6 4 3 6 10 17 12 10 12 14 15 17 18 19
34 34 35 36 34 13 14 5 1 4 12 4 8 7 2 3 2 3 1 2 3 5 5 3 9 9 5 6 7 7 6 10 4 1 6 9 14 13 12 13 22 23 20 21 17
35 36 34 36 27 9 6 4 5 1 3 6 3 2 2 5 3 3 3 4 4 3 6 6 2 4 4 4 6 5 7 6 8 3 4 7 9 7 7 16 18 23 16 18 21
39 37 34 38 6 20 4 8 4 2 3 5 0 2 2 2 1 0 1 2 2 7 6 6 2 5 5 6 8 5 2 2 1 1 4 1 11 4 6 11 8 16 16 15 17
41 41 38 28 11 7 6 11 4 1 6 2 1 1 1 1 1 1 2 2 5 5 5 7 6 5 6 6 6 5 2 2 2 1 4 3 2 4 3 10 7 6 2 8 15
40 38 35 22 12 12 9 15 1 3 7 1 2 2 3 1 1 1 1 2 1 1 3 5 1 3 3 3 2 4 3 3 4 2 2 7 8 5 4 5 6 5 4 8 13
39 35 32 13 4 8 14 3 4 3 4 2 2 1 3 4 3 4 2 1 3 3 4 2 4 1 3 2 4 1 3 2 2 1 6 4 3 9 8 1 2 4 5 3 9
36 33 23 11 14 10 8 2 4 2 6 4 5 6 5 2 2 3 2 4 6 3 2 5 7 7 4 4 3 4 4 4 7 4 4 0 6 6 1 4 4 3 3 7 8
41 22 12 5 7 5 2 1 5 4 5 9 9 5 2 3 2 3 3 3 5 3 2 5 4 4 5 4 1 2 6 1 2 2 1 4 6 3 2 2 2 3 6 8 9
32 9 8 8 4 1 2 5 4 3 6 6 3 4 4 6 6 5 3 3 2 7 6 7 7 3 2 2 4 4 4 2 2 3 4 4 5 4 7 7 4 3 5 6 9
10 4 7 9 5 4 3 5 5 3 6 6 3 9 7 5 4 3 3 1 2 0 1 4 4 0 2 4 7 3 3 3 2 3 2 3 6 5 5 1 5 4 4 5 9
4 4 8 16 3 2 2 3 8 6 6 4 3 3 3 4 4 5 5 1 7 3 1 2 3 3 5 4 5 3 4 5 3 3 4 3 8 1 2 1 3 5 4 1 4
3 3 6 2 1 2 5 7 4 7 8 8 5 1 2 3 5 6 4 3 8 6 5 5 3 3 2 2 1 3 5 6 1 0 6 4 7 1 2 3 4 5 7 7 9
3 4 3 4 3 3 6 5 6 5 6 4 3 2 3 5 6 7 5 5 6 6 6 5 4 8 10 5 4 4 5 9 7 3 4 8 21 19 5 6 7 7 7 6 7
1 3 1 4 4 12 6 4 7 8 3 3 2 3 6 5 4 4 5 6 4 5 4 3 5 5 8 11 9 9 11 11 11 15 8 19 17 20 13 4 8 8 5 8 9
2 2 3 3 3 4 6 3 12 6 6 9 4 9 8 8 11 16 8 3 4 2 4 2 4 3 4 13 11 9 14 13 13 15 13 17 21 19 12 4 3 6 8 9 9
4 3 1 4 0 2 4 3 9 13 8 5 14 11 5 12 7 11 14 15 14 7 6 4 3 3 5 1 3 4 10 9 3 4 5 6 7 4 5 4 5 3 5 6 6
Wind_Direction
24 21 18 13 7 360 354 341 332 325 316 316 314 314 314 315 316 306 236 208 236 302 305 311 293 239 195 253 189 112 82 247 256 190 239 143 136 23 49 111 56 11 148 164 160
18 15 13 10 8 2 356 351 338 317 313 306 309 313 313 318 314 254 235 245 285 292 275 119 52 7 202 233 215 136 167 224 228 230 234 182 177 155 145 147 195 66 54 140 151
10 7 6 5 5 2 354 346 337 325 308 298 303 310 316 323 305 218 198 275 291 280 270 238 201 164 191 172 205 192 222 211 205 200 212 189 143 168 140 220 200 187 156 154 160
2 1 360 358 357 358 346 345 337 324 305 293 287 302 317 278 293 173 268 297 286 243 230 200 219 162 199 202 197 211 235 215 175 206 189 190 141 204 205 216 181 163 163 160 170
358 356 353 352 351 350 348 342 343 335 314 287 279 292 320 233 254 193 294 300 252 229 217 195 175 188 214 244 202 218 222 206 178 199 253 144 226 223 243 220 121 143 160 171 175
357 355 353 350 348 346 345 338 338 334 322 303 259 264 182 242 170 211 320 316 302 224 227 194 223 181 238 238 189 198 242 255 214 218 239 210 235 155 249 125 137 157 174 177 178
354 352 350 349 346 343 339 336 332 327 320 307 228 209 235 245 212 256 323 291 3 314 258 224 211 186 264 287 321 113 296 304 223 202 228 133 259 234 147 151 160 178 182 181 183
354 352 350 347 345 341 337 335 327 315 318 306 181 168 240 238 231 263 326 197 222 277 269 254 164 205 204 190 8 303 109 284 247 148 199 138 262 351 167 156 179 184 187 187 187
353 351 350 348 346 340 338 335 327 316 301 277 164 158 271 171 185 239 336 237 280 254 282 287 252 186 81 128 350 267 249 212 301 188 144 184 264 356 173 179 190 194 192 190 184
348 346 345 344 344 340 340 333 332 323 292 256 264 351 209 223 173 218 272 257 116 155 54 112 51 143 40 134 225 221 229 252 240 202 186 207 251 255 190 197 209 203 201 195 190
343 343 342 341 341 341 347 346 12 340 4 210 226 252 149 193 215 162 106 113 156 102 173 221 126 212 214 223 322 340 251 266 274 187 193 240 252 258 203 215 225 214 208 203 198
340 341 341 339 339 337 358 61 73 283 302 255 251 250 135 133 286 159 14 152 155 204 132 57 234 215 177 188 227 241 261 264 266 353 194 276 266 258 225 220 216 217 213 203 185
341 340 341 336 336 344 18 42 330 220 262 301 217 182 166 156 207 185 149 158 182 216 206 183 264 110 170 210 210 224 205 218 231 298 242 314 270 231 267 238 227 228 219 204 188
345 341 340 340 344 337 313 353 358 205 325 268 154 33 73 111 238 135 53 141 212 212 193 228 253 189 201 232 179 262 211 118 290 60 240 308 295 187 239 251 218 232 214 191 180
343 338 337 342 286 304 314 335 327 113 341 320 57 344 61 225 56 277 3 61 218 194 131 244 183 193 203 220 169 232 97 96 84 130 17 213 215 263 12 270 281 309 224 164 170
337 333 336 332 302 298 315 321 219 48 254 348 82 13 342 143 238 71 350 13 28 311 242 255 327 198 206 71 28 129 96 62 56 87 290 207 177 284 213 221 323 352 15 135 155
335 330 331 319 261 315 321 355 36 169 321 355 66 199 206 235 228 179 180 241 220 295 247 214 206 126 141 114 13 127 118 279 283 343 237 134 120 248 258 336 250 306 311 80 145
335 332 329 318 306 310 310 29 213 274 289 358 9 274 224 4 208 178 236 273 233 223 252 229 276 174 172 200 198 192 201 201 239 212 256 141 232 248 153 246 251 250 166 108 119
338 336 328 345 348 275 84 354 237 259 335 347 335 324 301 61 328 342 241 251 43 34 259 337 282 32 33 358 66 146 217 323 51 158 304 229 293 343 291 341 21 61 125 138 147
336 326 320 347 335 306 80 230 251 341 350 9 297 276 314 330 333 348 199 33 68 50 37 351 297 352 323 19 61 103 323 337 47 253 243 312 292 238 0 350 334 286 168 146 152
360 354 5 15 346 41 233 237 295 41 8 357 318 287 289 304 258 257 280 89 221 116 110 202 211 32 4 199 193 151 186 93 276 256 294 317 278 220 211 230 302 262 248 186 178
11 341 335 337 22 33 289 283 335 336 19 1 359 311 276 4 292 280 249 310 179 245 254 192 180 257 245 36 53 94 149 169 178 215 221 221 262 357 145 220 264 274 268 238 151
341 282 333 33 65 319 323 334 354 12 6 345 315 9 345 303 309 245 262 234 173 181 174 180 230 313 226 68 218 212 196 204 235 20 199 232 267 96 342 256 247 229 205 191 178
344 320 320 19 96 31 347 303 330 294 275 214 257 261 290 269 229 278 281 273 198 208 194 168 205 209 249 277 232 220 205 199 167 202 228 236 275 288 241 234 221 227 216 198 180
30 273 59 318 348 331 338 285 313 319 276 305 271 255 310 305 277 255 304 350 289 274 187 195 244 211 251 266 271 260 266 250 210 240 254 273 278 274 298 266 248 238 175 182 188
289 307 353 277 277 326 306 253 285 300 349 310 264 318 330 290 282 290 293 232 221 237 211 226 224 240 262 257 247 255 263 261 260 259 252 258 271 282 289 303 262 225 187 189 191
268 298 234 246 327 275 252 296 325 322 301 258 314 301 279 287 278 278 271 270 261 251 209 212 211 188 253 239 86 280 239 236 232 209 187 209 245 351 332 2 4 300 199 182 165